Location: Mountain View
(37.3861°N, 122.0839°W)
Time: 14:52:07

Tiangong 1 - Visible Passes

Search period start: 24 March 2018 00:00
Search period end: 03 April 2018 00:00
Orbit: 205 x 227 km, 42.7° (Epoch: 24 March)

Date Brightness Start Highest point End Pass type
(mag) Time Alt. Az. Time Alt. Az. Time Alt. Az.
30 Mar -0.4 06:19:18 14° WSW 06:20:50 86° NNW 06:22:43 10° ENE visible
31 Mar -0.4 05:53:38 57° W 05:53:54 79° NNW 05:55:47 10° ENE visible
01 Apr 2.4 05:26:58 24° ENE 05:26:58 24° ENE 05:27:54 10° ENE visible
